Regional Weather Roundup
Issued by NWS

Home | Current Version | Previous Version | Text Only | Print | Product List | Glossary On
Versions: 1 2 3 4 5 6 7 8 9 10 11 12 13 14 15 16 17 18 19 20 21 22 23 24 25 26 27 28 29 30 31 32 33 34 35 36 37 38 39 40 41 42 43 44 45 46 47 48 49 50
000
ASUS43 KMPX 242310
RWRMN
WEATHER ROUNDUP FOR MINNESOTA
NATIONAL WEATHER SERVICE TWIN CITIES/CHANHASSEN MN
600 PM CDT THU MAY 24 2018


NOTE: "FAIR" INDICATES FEW OR NO CLOUDS BELOW 12,000 FEET WITH NO
SIGNIFICANT WEATHER AND/OR OBSTRUCTIONS TO VISIBILITY. N/A MEANS
CURRENT SKY AND/OR WEATHER CONDITIONS ARE NOT AVAILABLE.

MNZ060>063-068>070-250000-
   Twin Cities Metro

CITY           SKY/WX    TMP DP  RH WIND       PRES   REMARKS
TWIN CITIES    FAIR      91  62  37 SW16G26   29.87F HX  91
ST PAUL        FAIR      90  62  39 S16G26    29.86F HX  90
CRYSTAL        FAIR      89  60  37 S12G24    29.85F
BLAINE         PTSUNNY   90  61  37 S14G22    29.86F
LAKEVILLE      LGT RAIN  84  63  48 S7        29.88F
EDEN PRAIRIE   FAIR      88  61  40 S15G28    29.86S
SOUTH ST PAUL  FAIR      91  58  33 S14G22    29.86F
LAKE ELMO      FAIR      88  63  42 S17G23    29.88F
$$
MNZ001>005-007-008-013>017-022>024-027-028-250000-
   Northwest Minnesota

CITY           SKY/WX    TMP DP  RH WIND       PRES   REMARKS
BEMIDJI        FAIR      85  63  47 S10       29.80F
HALLOCK        FAIR      91  50  24 S22G33    29.65F
ROSEAU         FAIR      86  66  51 S14G22    29.72F
WARROAD        FAIR      82  68  61 S7        29.74F
THIEF RVR FALL FAIR      86  59  39 S22       29.75F
CROOKSTON      FAIR      90  52  27 SW17G25   29.70F
FOSSTON        FAIR      88  55  33 S18       29.77F
DETROIT LAKES  FAIR      86  55  35 S14       29.80F
MOORHEAD       FAIR      91  55  29 S18       29.74S
PARK RAPIDS    FAIR      87  57  35 SW14G26   29.80F
MAHNOMEN       FAIR      87  57  36 S14G20    29.75F
$$
MNZ006-009>011-018-025>026-250000-
   North Central Minnesota

CITY           SKY/WX    TMP DP  RH WIND       PRES   REMARKS
BAUDETTE       PTSUNNY   82  62  50 S13G23    29.77F
FLAG ISLAND    FAIR      73  64  73 SE8       29.75F HAZE
INTL FALLS     FAIR      76  66  71 S12       29.83F
WASKISH          N/A     82  64  54 S9        29.79F
BIG FORK       FAIR      73  66  78 SE3       29.85F
LONGVILLE      FAIR      84  61  45 S5        29.82F
GRAND RAPIDS   FAIR      81  70  69 S9        29.86F
CRANE LAKE     RAIN      64  63  94 S13G24    29.92R
ORR            RAIN      64  61  88 E3        29.86F
COOK           FAIR      66  64  94 CALM      29.89F
WALKER         FAIR      84  62  46 S8        29.81F
$$
MNZ012-019>021-037-250000-
   Northeast Minnesota

CITY           SKY/WX    TMP DP  RH WIND       PRES   REMARKS
DULUTH         FAIR      75  66  73 SE12      29.89F
ELY            FAIR      75  63  64 S3        29.90F
HIBBING        PTSUNNY   75  69  81 NE7       29.87F
EVELETH        FAIR      79  68  69 SE8       29.89F
DULUTH HARBOR  FOG       52  50  93 N5        29.89F THUNDER VSB 3/4
TWO HARBORS    FAIR      73  64  73 E5        29.89S
SILVER BAY     FAIR      75  63  64 CALM      29.90S
GRAND MARAIS     N/A     49  46  90 CALM      29.92F
G MARAIS ARPRT FAIR      70  55  60 S6        29.96S
$$
MNZ029>031-032-039>041-046>048-054>057-064-250000-
   West Central Minnesota

CITY           SKY/WX    TMP DP  RH WIND       PRES   REMARKS
FERGUS FALLS   FAIR      88  61  40 SW14G22   29.73F
WHEATON        SUNNY     90  54  29 SW14G21   29.79F
MORRIS         SUNNY     91  57  31 SW15G21   29.79F HX  90
ALEXANDRIA     FAIR      92  58  31 SW13      29.83F HX  91
ELBOW LAKE     FAIR      88  59  37 S20       29.80F
WADENA         FAIR      86  61  42 S12       29.81F
GLENWOOD       FAIR      90  57  33 S16       29.83F
APPLETON       SUNNY     90  55  31 SW8G16    29.78F
BENSON         SUNNY     90  57  33 SW12      29.81F
ORTONVILLE     MOSUNNY   90  61  37 S8        29.78F
MADISON        MOSUNNY   93  57  29 SW23G30   29.79F HX  92
WILLMAR        FAIR      81  63  54 SE17G24   29.87S
$$
MNZ033>034-036-042>043-049>051-058-059-250000-
   Central Minnesota

CITY           SKY/WX    TMP DP  RH WIND       PRES   REMARKS
ST CLOUD       FAIR      87  61  41 SW13      29.84F
SAUK CENTRE    FAIR      86  65  50 S15G23    29.83F
PAYNESVILLE    FAIR      83  67  59 S18G28    29.86R
PINE RIVER     FAIR      82  61  47 S8        29.85F
BRAINERD       FAIR      86  62  44 S16       29.83F
STAPLES        FAIR      88  52  29 SW8       29.81F
LONG PRAIRIE   FAIR      88  59  37 SE14G21   29.83F
LITTLE FALLS   FAIR      86  63  45 S6        29.84F
LITCHFIELD     FAIR      75  63  64 SW8       29.89R
BUFFALO        PTSUNNY   81  62  51 CALM      29.87S
MAPLE LAKE     FAIR      85  64  49 S6        29.87R
HUTCHINSON     PTSUNNY   73  66  78 W35G40    29.89R
$$
MNZ037-044-045-052-053-250000-
   East Central Minnesota

CITY           SKY/WX    TMP DP  RH WIND       PRES   REMARKS
PRINCETON      FAIR      88  63  42 S13G21    29.85S
MORA           FAIR      86  61  42 S8        29.87S
CAMBRIDGE      FAIR      91  66  43 S15G23    29.85F HX  94
RUSH CITY      FAIR      87  61  40 S9G17     29.86F
MOOSE LAKE     FAIR      82  70  65 CALM      29.84F
HINCKLEY       MOCLDY    86  63  45 S8        29.86S
CLOQUET        FAIR      72  63  73 SE7       29.89F
MCGREGOR       FAIR      81  68  65 SE7       29.86F
$$
MNZ071>073-080-081-089-090-097-098-250000-
   Southwest Minnesota

CITY           SKY/WX    TMP DP  RH WIND       PRES   REMARKS
MONTEVIDEO     CLOUDY    84  63  48 S17       29.82S
CANBY          MOSUNNY   91  59  34 SW12G22   29.82F
MARSHALL       SUNNY     89  64  43 S22G28    29.82F HX  90
REDWOOD FALLS  PTSUNNY   76  64  66 NE10      29.85R
OLIVIA         CLOUDY    70  63  78 E7        29.85F
PIPESTONE      CLOUDY    84  61  45 SW23      29.88F
WINDOM         CLOUDY    86  55  35 SW20      29.88F
WORTHINGTON      N/A     82  59  45 SW12      29.90F
JACKSON        CLOUDY    86  55  35 SW17G25   29.91F
TRACY          MOSUNNY   89  59  36 SW22G32   29.85F
SLAYTON        MOSUNNY   85  58  39 S26G32    29.89S
$$
MNZ065>067-074>077-082>085-091>093-250000-
   South Central Minnesota

CITY           SKY/WX    TMP DP  RH WIND       PRES   REMARKS
MANKATO        PTSUNNY   90  59  35 SW16      29.87F
NEW ULM        SUNNY     88  57  35 S17G26    29.85S
ST JAMES       MOSUNNY   90  57  33 S17G31    29.87F
FAIRMONT       MOSUNNY   90  60  36 SW21G28   29.88F
GLENCOE        FAIR      88  60  37 S13G21    29.85F
FARIBAULT      FAIR      90  61  37 S9G22     29.89F
OWATONNA       FAIR      90  61  37 S14G24    29.91F
WASECA         FAIR      90  59  35 S20G29    29.91F
ALBERT LEA     FAIR      86  55  35 S14       29.92F
$$
MNZ078>079-086>088-094>096-250000-
   Southeast Minnesota

CITY           SKY/WX    TMP DP  RH WIND       PRES   REMARKS
ROCHESTER      FAIR      86  58  38 S23       29.94F
RED WING       FAIR      91  50  24 SW16G26   29.89S
STANTON        FAIR      87  59  38 S12G22    29.88F
DODGE CENTER   FAIR      86 N/A N/A S18       29.94F
WINONA         FAIR      86  64  48 S6        29.93F
AUSTIN         FAIR      84  54  34 S17G23    29.93F
PRESTON        FAIR      85  58  40 S18G25    29.96F
$$
ABBREVIATIONS USED IN REMARKS
   TC - TEMPERATURES IN CELSIUS
  WCI - WIND CHILL INDEX
   HX - HEAT INDEX
  VSB - VISIBILITY
$$



USA.gov is the U.S. government's official web portal to all federal, state and local government web resources and services.